CYGNUS OA-7

Last updated on Mon Jun 12 2017 01:15:08 GMT+0100 (British Summer Time)

1 42681U 17019A 17162.18597911 .00001766 00000-0 30326-4 0 9995 2 42681 51.6405 68.6824 0011616 288.9143 231.8850 15.57448767 8322
UTC large
Height (km)
Speed (km/s)
/
Latitude / Longitude
Inclination (degrees)
Orbital Period (minutes)
Azimuth
Elevation
Range (km)
Doppler Factor

Next 0 passes for location: London (51.5072 / 0.1276)

Sorry there are no passes over London.